Hourly Weather Roundup
Issued by NWS Central Illinois

Home | Current Version | Previous Version | Text Only | Print | Product List | Glossary On
Versions: 1 2 3 4 5 6 7 8 9 10 11 12 13 14 15 16 17 18 19 20 21 22 23 24 25 26 27 28 29 30 31 32 33 34 35 36 37 38 39 40 41 42 43 44 45 46 47 48 49 50
000
NZUS43 KILX 271910
HWRILX

AREA WEATHER ROUNDUP
NATIONAL WEATHER SERVICE, LINCOLN IL
200 PM CDT SUN JUL 27 2014


CITY           SKY/WX    TMP DP  RH WIND       PRES   REMARKS
BLOOMINGTON    MOSUNNY   83  57  40 W22G33    29.83S HX  82
CHAMPAIGN      PTSUNNY   84  70  62 W21G29    29.80F HX  88
DECATUR        MOSUNNY   86  68  54 NW24G36   29.83F HX  89
FLORA          SUNNY     85  69  57 W13G21    29.85F HX  89
GALESBURG      MOSUNNY   81  62  50 W18G30    29.86S HX  82
JACKSONVILLE   MOSUNNY   84  66  54 W17G25    29.89F HX  86
LACON          MOSUNNY   82  58  43 NW17G24   29.81S HX  82
LAWRENCEVILLE  MOSUNNY   87  73  62 NW17G23   29.82S HX  94
LITCHFIELD     MOSUNNY   86  68  53 W18       29.87F HX  89
$$


CITY           SKY/WX    TMP DP  RH WIND       PRES   REMARKS
LINCOLN        SUNNY     85  61  43 W13G20    29.81S HX  86
MACOMB         MOSUNNY   80  62  54 W20G26    29.90S HX  81
MATTOON        MOSUNNY   85  72  65 W12G23    29.82F HX  91
MT CARMEL AP   PTSUNNY   88  77  70 NW9G21    29.82S HX 100
OLNEY-NOBLE AP MOSUNNY   84  73  70 NW8G16    29.85S HX  91
PARIS          MOSUNNY   85  73  67 W13G18    29.81F HX  91
PEORIA         SUNNY     85  58  39 W16G29    29.84S HX  84
PONTIAC        SUNNY     82  63  51 W17G26    29.79S HX  83
RANTOUL        MOSUNNY   85  67  55 W18G26    29.79S HX  88
ROBINSON       SUNNY     86  73  64 W13G18    29.83S HX  92
SPRINGFIELD    SUNNY     85  63  47 W18G29    29.86S HX  86
TAYLORVILLE    MOSUNNY   82  66  57 W12G23    29.84F HX  85
$$

...REGIONAL REPORTS...


CITY           SKY/WX    TMP DP  RH WIND       PRES   REMARKS
CHICAGO O`HARE MOSUNNY   85  54  34 W22G30    29.71S HX  83
KANKAKEE       MOSUNNY   84  64  51 W21       29.75S HX  85
MOLINE         PTSUNNY   78  58  49 NW23G31   29.85R
MOUNT VERNON   MOSUNNY   88  70  55 NW5       29.87S HX  92
PITTSFIELD     SUNNY     85  62  45 W14G24    29.92S HX  85
QUINCY         SUNNY     83  59  44 NW20G29   29.91F HX  83
ROCKFORD       PTSUNNY   80  57  45 W22G31    29.78S HX  80
$$


CITY           SKY/WX    TMP DP  RH WIND       PRES   REMARKS
BURLINGTON     MOSUNNY   79  60  52 NW20G25   29.89R HX  80
CEDAR RAPIDS   PTSUNNY   74  57  55 NW20G33   29.91R
DES MOINES     PTSUNNY   78  57  48 NW24G32   30.00R
KIRKSVILLE     SUNNY     84  57  39 NW21G31   29.97F HX  83
OTTUMWA        MOSUNNY   77  60  55 NW22G30   29.96R
ST LOUIS       MOSUNNY   92  64  39 NW17G31   29.90F HX  93
$$


CITY           SKY/WX    TMP DP  RH WIND       PRES   REMARKS
TERRE HAUTE    MOSUNNY   85  71  63 NW10G22   29.80S HX  90
EVANSVILLE     PTSUNNY   88  74  63 W13G22    29.83S HX  96
INDIANAPOLIS   PTSUNNY   82  71  69 W17       29.76S HX  86
LAFAYETTE      MOSUNNY   85  70  60 W10G16    29.73F HX  89
MADISON        PTSUNNY   74  57  55 NW10G25   29.77R
MILWAUKEE      PTSUNNY   81  54  39 W17G23    29.69S HX  81
$$




USA.gov is the U.S. government's official web portal to all federal, state and local government web resources and services.